• In Netherlands
  • List of Countries
  • For 7 days
  • Water Temperature
  • Satellite Maps
  • Weather Map
  • Weather Widgets
  • user-avatar
    Login

    Hourly Weather Barra

    Today, 24 July, Monday

    Time Temperature Precipitation Wind Pressure Humidity
    00:00 +19°C° 0 mm 2 mps 752 mmHg 91%
    01:00 +20°C° 0 mm 2 mps 752 mmHg 91%
    02:00 +19°C° 0 mm 2 mps 752 mmHg 91%
    03:00 +19°C° 0 mm 2 mps 752 mmHg 92%
    04:00 +19°C° 0 mm 3 mps 752 mmHg 93%
    05:00 +19°C° 0 mm 3 mps 752 mmHg 93%
    06:00 +19°C° 0 mm 3 mps 752 mmHg 93%
    07:00 +19°C° 0 mm 3 mps 753 mmHg 94%
    08:00 +20°C° 0 mm 3 mps 753 mmHg 85%
    09:00 +22°C° 0 mm 3 mps 753 mmHg 77%
    10:00 +25°C° 0 mm 3 mps 753 mmHg 63%
    11:00 +26°C° 0 mm 3 mps 753 mmHg 60%
    12:00 +27°C° 0 mm 3 mps 752 mmHg 57%
    13:00 +27°C° 0 mm 4 mps 752 mmHg 54%
    14:00 +27°C° 0 mm 4 mps 751 mmHg 56%
    15:00 +26°C° 0 mm 4 mps 751 mmHg 58%
    16:00 +26°C° 0 mm 4 mps 751 mmHg 60%
    17:00 +23°C° 0.1 mm 4 mps 751 mmHg 70%
    18:00 +21°C° 0.1 mm 4 mps 752 mmHg 80%
    19:00 +20°C° 0.1 mm 4 mps 752 mmHg 90%
    20:00 +20°C° 0.1 mm 4 mps 752 mmHg 91%
    21:00 +20°C° 0.1 mm 4 mps 753 mmHg 92%
    22:00 +20°C° 0.1 mm 4 mps 753 mmHg 92%
    23:00 +20°C° 0.1 mm 4 mps 753 mmHg 92%

    Tomorrow, 25 July, Tuesday

    Time Temperature Precipitation Wind Pressure Humidity
    00:00 +20°C° 0.1 mm 4 mps 753 mmHg 92%
    01:00 +19°C° 0.1 mm 4 mps 753 mmHg 92%
    02:00 +19°C° 0.1 mm 4 mps 753 mmHg 92%
    03:00 +19°C° 0.1 mm 4 mps 752 mmHg 93%
    04:00 +19°C° 0.1 mm 4 mps 752 mmHg 93%
    05:00 +19°C° 0.1 mm 4 mps 753 mmHg 93%
    06:00 +19°C° 0.1 mm 4 mps 753 mmHg 93%
    07:00 +19°C° 0.1 mm 4 mps 753 mmHg 93%
    08:00 +20°C° 0.1 mm 4 mps 753 mmHg 86%
    09:00 +21°C° 0.1 mm 4 mps 754 mmHg 79%
    10:00 +23°C° 0.1 mm 5 mps 754 mmHg 71%
    11:00 +23°C° 0 mm 5 mps 753 mmHg 67%
    12:00 +25°C° 0 mm 5 mps 753 mmHg 62%
    13:00 +26°C° 0 mm 5 mps 752 mmHg 57%
    14:00 +25°C° 0 mm 5 mps 752 mmHg 58%
    15:00 +25°C° 0 mm 5 mps 751 mmHg 59%
    16:00 +25°C° 0 mm 5 mps 751 mmHg 60%
    17:00 +22°C° 0 mm 5 mps 752 mmHg 69%
    18:00 +21°C° 0 mm 4 mps 752 mmHg 78%
    19:00 +19°C° 0 mm 4 mps 753 mmHg 87%
    20:00 +19°C° 0.1 mm 4 mps 753 mmHg 88%
    21:00 +19°C° 0.1 mm 4 mps 753 mmHg 90%
    22:00 +18°C° 0.1 mm 4 mps 753 mmHg 92%
    23:00 +18°C° 0.1 mm 4 mps 753 mmHg 93%

    Day after tomorrow, 26 July, Wednesday

    Time Temperature Precipitation Wind Pressure Humidity
    00:00 +18°C° 0.1 mm 4 mps 753 mmHg 94%
    01:00 +18°C° 0.1 mm 4 mps 753 mmHg 94%
    02:00 +18°C° 0.1 mm 4 mps 752 mmHg 94%
    03:00 +18°C° 0.1 mm 4 mps 752 mmHg 94%
    04:00 +19°C° 0.1 mm 4 mps 752 mmHg 94%
    05:00 +18°C° 0.1 mm 4 mps 752 mmHg 94%
    06:00 +18°C° 0.1 mm 4 mps 753 mmHg 94%
    07:00 +18°C° 0.1 mm 4 mps 753 mmHg 94%
    08:00 +19°C° 0.1 mm 5 mps 753 mmHg 88%
    09:00 +20°C° 0.1 mm 5 mps 754 mmHg 82%
    10:00 +22°C° 0.1 mm 5 mps 754 mmHg 77%
    11:00 +23°C° 0.1 mm 5 mps 754 mmHg 72%
    12:00 +23°C° 0.1 mm 5 mps 753 mmHg 67%
    13:00 +25°C° 0.1 mm 5 mps 752 mmHg 62%
    14:00 +25°C° 0 mm 5 mps 752 mmHg 62%
    15:00 +25°C° 0 mm 5 mps 752 mmHg 63%
    16:00 +25°C° 0 mm 5 mps 751 mmHg 64%
    17:00 +22°C° 0 mm 5 mps 752 mmHg 70%
    18:00 +21°C° 0 mm 5 mps 752 mmHg 77%
    19:00 +19°C° 0 mm 4 mps 753 mmHg 84%
    20:00 +19°C° 0 mm 4 mps 753 mmHg 85%
    21:00 +19°C° 0 mm 4 mps 753 mmHg 87%
    22:00 +18°C° 0 mm 4 mps 754 mmHg 88%
    23:00 +18°C° 0.1 mm 4 mps 753 mmHg 90%

    27 July, Thursday

    Time Temperature Precipitation Wind Pressure Humidity
    00:00 +18°C° 0.1 mm 4 mps 753 mmHg 91%
    01:00 +18°C° 0.1 mm 4 mps 753 mmHg 93%
    02:00 +18°C° 0.1 mm 4 mps 752 mmHg 94%
    03:00 +19°C° 0.1 mm 4 mps 752 mmHg 95%
    04:00 +19°C° 0.1 mm 4 mps 752 mmHg 96%
    05:00 +19°C° 0.3 mm 5 mps 752 mmHg 95%
    06:00 +19°C° 0.3 mm 5 mps 753 mmHg 95%
    07:00 +20°C° 0.3 mm 5 mps 753 mmHg 95%
    08:00 +20°C° 0.5 mm 6 mps 754 mmHg 92%
    09:00 +20°C° 0.5 mm 6 mps 754 mmHg 90%
    10:00 +20°C° 0.5 mm 6 mps 754 mmHg 88%
    11:00 +22°C° 0.1 mm 6 mps 754 mmHg 78%
    12:00 +23°C° 0.1 mm 6 mps 753 mmHg 68%
    13:00 +26°C° 0.1 mm 6 mps 753 mmHg 58%
    14:00 +24°C° 0 mm 6 mps 752 mmHg 58%
    15:00 +24°C° 0 mm 6 mps 752 mmHg 59%
    16:00 +24°C° 0 mm 6 mps 752 mmHg 60%
    17:00 +22°C° 0 mm 5 mps 752 mmHg 67%
    18:00 +20°C° 0 mm 5 mps 752 mmHg 74%
    19:00 +19°C° 0 mm 4 mps 753 mmHg 82%
    20:00 +19°C° 0.1 mm 4 mps 753 mmHg 85%
    21:00 +17°C° 0.1 mm 5 mps 754 mmHg 88%
    22:00 +17°C° 0.1 mm 5 mps 754 mmHg 91%
    23:00 +17°C° 0.1 mm 5 mps 754 mmHg 92%

    28 July, Friday

    Time Temperature Precipitation Wind Pressure Humidity
    00:00 +17°C° 0.1 mm 5 mps 754 mmHg 92%
    01:00 +17°C° 0.1 mm 5 mps 754 mmHg 93%
    02:00 +17°C° 0 mm 5 mps 753 mmHg 93%
    03:00 +17°C° 0 mm 5 mps 753 mmHg 93%
    04:00 +18°C° 0 mm 4 mps 753 mmHg 93%
    05:00 +17°C° 0 mm 4 mps 753 mmHg 93%
    06:00 +17°C° 0 mm 4 mps 754 mmHg 93%
    07:00 +17°C° 0 mm 4 mps 754 mmHg 92%
    08:00 +19°C° 0 mm 5 mps 754 mmHg 83%
    09:00 +21°C° 0 mm 5 mps 754 mmHg 73%
    10:00 +23°C° 0 mm 5 mps 755 mmHg 63%
    11:00 +25°C° 0 mm 5 mps 754 mmHg 60%
    12:00 +25°C° 0 mm 5 mps 753 mmHg 56%
    13:00 +26°C° 0 mm 5 mps 753 mmHg 53%
    14:00 +26°C° 0 mm 5 mps 752 mmHg 55%
    15:00 +25°C° 0 mm 5 mps 752 mmHg 56%
    16:00 +25°C° 0 mm 5 mps 752 mmHg 58%
    17:00 +22°C° 0 mm 5 mps 752 mmHg 66%
    18:00 +21°C° 0 mm 5 mps 753 mmHg 74%
    19:00 +19°C° 0 mm 4 mps 753 mmHg 82%
    20:00 +19°C° 0 mm 4 mps 754 mmHg 83%
    21:00 +19°C° 0 mm 5 mps 754 mmHg 85%
    22:00 +19°C° 0 mm 5 mps 754 mmHg 86%
    23:00 +19°C° 0.1 mm 5 mps 754 mmHg 86%

    29 July, Saturday

    Time Temperature Precipitation Wind Pressure Humidity
    00:00 +19°C° 0.1 mm 4 mps 754 mmHg 87%
    01:00 +19°C° 0.1 mm 4 mps 754 mmHg 88%
    02:00 +19°C° 0.1 mm 4 mps 753 mmHg 89%
    03:00 +19°C° 0.1 mm 4 mps 753 mmHg 90%
    04:00 +19°C° 0.1 mm 4 mps 753 mmHg 91%
    05:00 +18°C° 0.1 mm 4 mps 753 mmHg 91%
    06:00 +18°C° 0.1 mm 4 mps 754 mmHg 92%
    07:00 +18°C° 0.1 mm 4 mps 754 mmHg 92%
    08:00 +20°C° 0.1 mm 4 mps 754 mmHg 85%
    09:00 +21°C° 0.1 mm 4 mps 754 mmHg 78%
    10:00 +23°C° 0.1 mm 5 mps 754 mmHg 71%
    11:00 +23°C° 0 mm 5 mps 754 mmHg 67%
    12:00 +25°C° 0 mm 5 mps 753 mmHg 62%
    13:00 +26°C° 0 mm 5 mps 752 mmHg 57%
    14:00 +26°C° 0 mm 5 mps 752 mmHg 58%
    15:00 +25°C° 0 mm 5 mps 752 mmHg 59%
    16:00 +25°C° 0 mm 5 mps 751 mmHg 60%
    17:00 +23°C° 0 mm 4 mps 752 mmHg 67%
    18:00 +21°C° 0 mm 4 mps 752 mmHg 75%
    19:00 +19°C° 0 mm 4 mps 753 mmHg 82%
    20:00 +19°C° 0 mm 4 mps 753 mmHg 84%
    21:00 +19°C° 0 mm 4 mps 753 mmHg 85%
    22:00 +19°C° 0 mm 4 mps 753 mmHg 87%
    23:00 +19°C° 0.1 mm 3 mps 753 mmHg 88%
    Show more